Location: Peterborough
(44.3091°N, 78.3197°W)
Time: 17:47:20
(UTC-04:00)

A-11 Canister half - Pass Details

Date: 15 December 2023
Orbit: 1515 x 1684 km, 47.2° (Epoch: 06 October)

Event Time Altitude Azimuth Distance (km) Brightness Sun altitude
Exits shadow 05:18:55 28° 239° (WSW) 2,752 9.9 -24.6°
Maximum altitude 05:20:02 28° 229° (SW) 2,728 9.9 -24.4°
Drops below altitude 10° 05:28:08 10° 175° (S) 3,933 11.3 -23.0°
Sets 05:31:53 0° 164° (SSE) 4,924 12.0 -22.3°
